Regional Weather Roundup
Issued by NWS Kansas City/Pleasant Hill, MO

Home | Current Version | Previous Version | Graphics & Text | Print | Product List | Glossary Off
Versions: 1 2 3 4 5 6 7 8 9 10 11 12 13 14 15 16 17 18 19 20 21 22 23 24 25 26 27 28

000
ASUS43 KEAX 282210
RWREAX

WEATHER ROUNDUP FOR EASTERN KANSAS AND NORTHWEST MISSOURI
NATIONAL WEATHER SERVICE KANSAS CITY/PLEASANT HILL MO
500 PM CDT TUE MAR 28 2017

KSZ040-057-103>105-MOZ028-029-037-043-282300-
...KANSAS CITY METROPOLITAN AREA...

CITY           SKY/WX    TMP DP  RH WIND       PRES   REMARKS
K.C. INTL      CLOUDY    53  49  86 E12       30.01F
K.C. DOWNTOWN  CLOUDY    55  50  83 E14       29.99F
LEES SUMMIT    CLOUDY    53  51  93 E12       30.00F
OLATHE - IXD   CLOUDY    54  50  86 E12       29.99F
OLATHE - OJC   CLOUDY    52  51  97 E13       29.98F
LAWRENCE       CLOUDY    55  50  83 NE13      29.98F

$$

MOZ001>008-011>017-020>025-030>033-038>040-044>046-053-054-282300-
...NORTHERN AND CENTRAL MISSOURI...

CITY           SKY/WX    TMP DP  RH WIND       PRES   REMARKS
ST. JOSEPH     CLOUDY    53  48  83 E12       30.02F
MOSBY          CLOUDY    54  48  82 E9        30.02F
WARRENSBURG    CLOUDY    54  50  87 NE13      30.01F
WHITEMAN AFB   CLOUDY    57  56  99 E13       30.00F
CLINTON        CLOUDY    61  52  72 E8        29.98F
SEDALIA        CLOUDY    57  51  80 E12       30.03F
WARSAW         NOT AVBL
CHILLICOTHE      N/A     55  49  80 VRB7      30.06F
KIRKSVILLE     CLOUDY    53  48  83 NE8       30.08R

$$

MOZ041-047>049-056>058-063>065-088>090-097-282300-
...EASTERN AND SOUTHERN MISSOURI...

CITY           SKY/WX    TMP DP  RH WIND       PRES   REMARKS
ST. LOUIS INTL CLOUDY    59  48  67 E7        30.06S
SPIRIT OF STL  CLOUDY    57  50  77 NE7       30.05S
COLUMBIA       CLOUDY    58  51  78 E7        30.03S
JEFFERSON CITY CLOUDY    60  50  69 E9        30.03S
ROLLA          CLOUDY    56  50  80 NE12G17   30.02S
OSAGE BEACH    CLOUDY    60  50  69 E9        30.01F
SPRINGFIELD    SUNNY     68  50  52 E12       29.91F
BRANSON        MOSUNNY   68  54  60 E6        29.92F
JOPLIN         SUNNY     67  53  61 E12       29.89F
WEST PLAINS    MOSUNNY   67  50  54 E9        29.97F

$$

IAZ060-094-KSZ022-034>040-054-083-096-NEZ052-066-093-282300-
...KANSAS...SOUTHEAST NEBRASKA AND IOWA...

CITY           SKY/WX    TMP DP  RH WIND       PRES   REMARKS
TOPEKA         CLOUDY    55  50  83 NE12      29.98F
MANHATTAN      CLOUDY    55  46  71 E7        29.98R
EMPORIA        CLOUDY    54  50  86 E12       29.95R
CHANUTE        MOSUNNY   62  49  62 E15G22    29.91F
WICHITA        CLOUDY    54  47  77 NE17      29.90F
OMAHA          CLOUDY    51  41  68 E13       30.07S
LINCOLN        CLOUDY    51  42  71 NE13      30.06F
FALLS CITY     CLOUDY    52  46  80 E12       30.02F
LAMONI         CLOUDY    54  45  71 E6        30.06S
DES MOINES     CLOUDY    52  42  69 E9        30.10R

$$





USA.gov is the U.S. government's official web portal to all federal, state and local government web resources and services.